Wellsville, NY

4:23 PM EST on November 17, 2019 (GMT -0500)
Wellsville Municipal-Tarantine

Weather History for KELZ - August, 2019

Change the Weather History Date:

Sunday, August 25, 2019

  Actual Average (WUND) Record (WUND)
Temperature  
Mean Temperature 57 °F -  
Max Temperature 69 °F - - (-1)
Min Temperature 45 °F - - (-1)
Degree Days  
Heating Degree Days 8    
Growing Degree Days 7 (Base 50)    
Moisture  
Dew Point 50 °F    
Average Humidity 86    
Maximum Humidity 100    
Minimum Humidity 54    
Precipitation  
Precipitation 0.00 in - - ()
Sea Level Pressure  
Sea Level Pressure 30.31 in    
Wind  
Wind Speed 2 mph ()    
Max Wind Speed 9 mph    
Max Gust Speed 18 mph    
Visibility 5.9 miles    
Events Fog    
Averages and records for this station are not official NWS values.
T = Trace of Precipitation, MM = Missing Value Source: Averaged Metar Reports

Daily Weather History Graph

Daily Weather History Graph

Search for Another Location

Airport or City:

Astronomy

Aug. 25, 2019 Rise Set
Actual Time 6:29 AM EDT 7:57 PM EDT
Civil Twilight 6:00 AM EDT 8:26 PM EDT
Nautical Twilight 5:25 AM EDT 9:01 PM EDT
Astronomical Twilight 4:47 AM EDT 9:39 PM EDT
Moon 1:00 AM EDT (8/25) 4:19 PM EDT (8/25)
Length of Visible Light 14h 26m
Length of Day
13h 27m
Waning Crescent, 29% of the Moon is Illuminated
Aug 25
Waning Crescent
Aug 30
New
Sep 5
First Quarter
Sep 14
Full
Sep 21
Last Quarter

Hourly Weather History & Observations

Time (EDT) Temp. Dew Point Humidity Pressure Visibility Wind Dir Wind Speed Gust Speed Precip Events Conditions
12:56 AM 52.0 °F 51.1 °F 97% 30.33 in 10.0 mi Calm Calm - N/A   Clear
1:56 AM 52.0 °F 51.1 °F 97% 30.31 in 10.0 mi ESE 3.5 mph - N/A   Clear
2:19 AM 50.0 °F 50.0 °F 100% 30.31 in 1.8 mi Calm Calm - N/A   Scattered Clouds
2:21 AM 50.0 °F 50.0 °F 100% 30.31 in 0.8 mi Calm Calm - N/A   Mist
2:32 AM 50.0 °F 50.0 °F 100% 30.31 in 0.2 mi Calm Calm - N/A Fog Fog
2:44 AM 50.0 °F 50.0 °F 100% 30.31 in 0.5 mi NE 3.5 mph - N/A Fog Fog
2:53 AM 48.2 °F 48.2 °F 100% 30.31 in 0.2 mi Calm Calm - N/A Fog Fog
2:56 AM 48.9 °F 48.9 °F 100% 30.32 in 0.2 mi Calm Calm - N/A Fog Fog
3:56 AM 48.0 °F 48.0 °F 100% 30.31 in 0.2 mi Calm Calm - N/A Fog Fog
4:20 AM 46.9 °F 46.9 °F 100% 30.30 in 0.5 mi Calm Calm - N/A Fog Fog
4:27 AM 48.0 °F 48.0 °F 100% 30.31 in 0.2 mi Calm Calm - N/A Fog Fog
4:56 AM 46.0 °F 46.0 °F 100% 30.32 in 0.2 mi Calm Calm - N/A Fog Fog
5:27 AM 46.0 °F 46.0 °F 100% 30.32 in 0.5 mi Calm Calm - N/A Fog Fog
5:36 AM 46.9 °F 46.9 °F 100% 30.32 in 0.2 mi Calm Calm - N/A Fog Fog
5:56 AM 45.0 °F 44.1 °F 97% 30.34 in 0.2 mi Calm Calm - N/A Fog Fog
6:56 AM 46.0 °F 46.0 °F 100% 30.35 in 0.2 mi Calm Calm - N/A Fog Fog
7:38 AM 48.9 °F 48.9 °F 100% 30.34 in 1.0 mi Calm Calm - N/A   Mist
7:53 AM 50.0 °F 50.0 °F 100% 30.35 in 8.0 mi Calm Calm - N/A   Partly Cloudy
7:56 AM 50.0 °F 50.0 °F 100% 30.36 in 9.0 mi Calm Calm - N/A   Partly Cloudy
8:56 AM 53.1 °F 52.0 °F 96% 30.36 in 10.0 mi SE 3.5 mph - N/A   Clear
9:56 AM 59.0 °F 54.0 °F 83% 30.35 in 10.0 mi ESE 6.9 mph - N/A   Clear
10:56 AM 64.9 °F 55.9 °F 73% 30.34 in 10.0 mi Variable 6.9 mph - N/A   Scattered Clouds
11:04 AM 64.0 °F 53.1 °F 67% 30.34 in 10.0 mi ESE 6.9 mph - N/A   Mostly Cloudy
11:23 AM 64.9 °F 52.0 °F 63% 30.33 in 10.0 mi East 9.2 mph - N/A   Scattered Clouds
11:56 AM 66.9 °F 52.0 °F 59% 30.32 in 10.0 mi ESE 8.1 mph 18.4 mph N/A   Scattered Clouds
12:56 PM 64.0 °F 51.1 °F 63% 30.32 in 10.0 mi ESE 8.1 mph - N/A   Mostly Cloudy
1:56 PM 69.1 °F 52.0 °F 54% 30.30 in 10.0 mi Variable 4.6 mph - N/A   Mostly Cloudy
2:56 PM 66.0 °F 52.0 °F 60% 30.30 in 10.0 mi Variable 4.6 mph - N/A   Overcast
3:56 PM 66.0 °F 52.0 °F 60% 30.29 in 10.0 mi SE 5.8 mph - N/A   Overcast
4:56 PM 66.9 °F 54.0 °F 63% 30.29 in 10.0 mi ESE 5.8 mph - N/A   Overcast
5:56 PM 64.0 °F 52.0 °F 65% 30.29 in 10.0 mi ESE 9.2 mph - N/A   Overcast
6:56 PM 63.0 °F 54.0 °F 72% 30.28 in 10.0 mi ESE 4.6 mph - N/A   Partly Cloudy
7:56 PM 60.1 °F 53.1 °F 78% 30.28 in 10.0 mi SE 4.6 mph - N/A   Clear
8:56 PM 57.9 °F 52.0 °F 81% 30.28 in 10.0 mi East 3.5 mph - N/A   Clear
9:56 PM 57.0 °F 53.1 °F 87% 30.27 in 10.0 mi SE 3.5 mph - N/A   Clear
10:56 PM 54.0 °F 53.1 °F 97% 30.27 in 10.0 mi Calm Calm - N/A   Clear